Location: Rounton
(54.4000°N, 1.3500°W)
Time: 01:46:05
(UTC+00:00)

Transit 4A - Pass Details

Date: 04 December 2021
Orbit: 864 x 981 km, 66.8° (Epoch: 19 January)

Event Time Altitude Azimuth Distance (km) Brightness Sun altitude
Rises 18:21:54 0° 173° (S) 3,458 10.9 -21.7°
Reaches altitude 10° 18:24:48 10° 160° (SSE) 2,539 10.1 -22.1°
Enters shadow 18:26:29 17° 146° (SSE) 2,111 9.5 -22.4°
